| time (UTC) | temp F | wind direction | speed knots | gust knots | rain 1hr in | rain 24hr in | rain mn in | humidity % | barometer mb |
| 20260504213850 | 0 | 83 | 0.0 | 0.9 | 0.00 | 0.00 | 0.00 | 1017.4 | |
| 20260504212850 | 0 | 86 | 0.9 | 1.7 | 0.00 | 0.00 | 0.00 | 1017.3 | |
| 20260504211849 | 0 | 88 | 1.7 | 2.6 | 0.00 | 0.00 | 0.00 | 1017.1 | |
| 20260504210849 | 0 | 91 | 4.3 | 6.1 | 0.00 | 0.00 | 0.00 | 1017.4 | |
| 20260504205848 | 0 | 93 | 2.6 | 4.3 | 0.00 | 0.00 | 0.00 | 1017.5 | |
| 20260504204844 | 0 | 89 | 4.3 | 6.1 | 0.00 | 0.00 | 0.00 | 1017.1 | |
| 20260504203842 | 0 | 81 | 3.5 | 5.2 | 0.00 | 0.00 | 0.00 | 1017.2 | |
| 20260504202840 | 0 | 85 | 0.9 | 2.6 | 0.00 | 0.00 | 0.00 | 1017.1 | |
| 20260504201839 | 0 | 80 | 0.0 | 0.9 | 0.00 | 0.00 | 0.00 | 1017.1 | |
| 20260504200834 | 0 | 76 | 5.2 | 7.8 | 0.00 | 0.00 | 0.00 | 1017.0 | |
| 20260504195833 | 0 | 71 | 5.2 | 7.0 | 0.00 | 0.00 | 0.00 | 1017.0 | |
| 20260504194831 | 0 | 67 | 4.3 | 6.1 | 0.00 | 0.00 | 0.00 | 1017.1 | |
| 20260504193829 | 0 | 71 | 7.0 | 9.6 | 0.00 | 0.00 | 0.00 | 1017.3 | |
| 20260504192825 | 0 | 77 | 2.6 | 4.3 | 0.00 | 0.00 | 0.00 | 1017.3 | |
| 20260504191821 | 0 | 92 | 6.1 | 8.7 | 0.00 | 0.00 | 0.00 | 1017.4 | |
| 20260504190819 | 0 | 98 | 2.6 | 6.1 | 0.00 | 0.00 | 0.00 | 1017.4 | |
| 20260504185818 | 0 | 104 | 4.3 | 6.1 | 0.00 | 0.00 | 0.00 | 1017.2 | |
| 20260504184817 | 0 | 89 | 5.2 | 7.0 | 0.00 | 0.00 | 0.00 | 1017.4 | |
| 20260504183815 | 0 | 67 | 4.3 | 7.0 | 0.00 | 0.00 | 0.00 | 1017.3 | |
| 20260504182810 | 0 | 77 | 0.9 | 4.3 | 0.00 | 0.00 | 0.00 | 1017.7 | |
| 20260504181810 | 0 | 96 | 5.2 | 6.1 | 0.00 | 0.00 | 0.00 | 1017.7 | |
| 20260504180807 | 0 | 100 | 3.5 | 5.2 | 0.00 | 0.00 | 0.00 | 1017.9 | |
| 20260504175802 | 0 | 94 | 4.3 | 6.1 | 0.00 | 0.00 | 0.00 | 1018.4 | |
| 20260504174803 | 0 | 77 | 6.1 | 7.0 | 0.00 | 0.00 | 0.00 | 1018.2 | |
| 20260504173802 | 0 | 76 | 0.9 | 1.7 | 0.00 | 0.00 | 0.00 | 1018.5 | |
| 20260504172802 | 0 | 76 | 1.7 | 5.2 | 0.00 | 0.00 | 0.00 | 1018.4 | |
| 20260504171800 | 0 | 81 | 0.0 | 1.7 | 0.00 | 0.00 | 0.00 | 1018.4 | |
| 20260504170755 | 0 | 89 | 4.3 | 6.1 | 0.00 | 0.00 | 0.00 | 1018.3 | |
| 20260504150733 | 0 | 91 | 3.5 | 7.0 | 0.00 | 0.00 | 0.00 | 1019.4 | |
| 20260504140731 | 0 | 86 | 0.0 | 0.0 | 0.00 | 0.00 | 0.00 | 1019.7 | |
| 20260504130719 | 0 | 89 | 2.6 | 5.2 | 0.00 | 0.00 | 0.00 | 1019.8 | |
| 20260504110652 | 0 | 70 | 0.0 | 0.0 | 0.00 | 0.00 | 0.00 | 1019.9 | |
| 20260504081621 | 0 | 39 | 0.0 | 0.0 | 0.00 | 0.00 | 0.00 | 1018.5 | |
| 20260504080620 | 0 | 34 | 0.0 | 0.0 | 0.00 | 0.00 | 0.00 | 1018.8 | |
| 20260504050548 | 0 | 84 | 0.0 | 0.0 | 0.00 | 0.00 | 0.00 | 1019.3 | |
| 20260504045548 | 0 | 77 | 0.0 | 0.0 | 0.00 | 0.00 | 0.00 | 1019.7 | |
| 20260504044546 | 0 | 72 | 0.0 | 0.0 | 0.00 | 0.00 | 0.00 | 1019.8 | |
| 20260504043546 | 0 | 66 | 0.0 | 0.0 | 0.00 | 0.00 | 0.00 | 1020.1 | |
| 20260504042546 | 0 | 58 | 0.0 | 0.0 | 0.00 | 0.00 | 0.00 | 1020.2 | |
| 20260504041545 | 0 | 55 | 0.0 | 0.0 | 0.00 | 0.00 | 0.00 | 1020.4 | |
| 20260504040544 | 0 | 75 | 0.0 | 0.0 | 0.00 | 0.00 | 0.00 | 1020.5 | |
| 20260504035543 | 0 | 65 | 0.0 | 0.0 | 0.00 | 0.00 | 0.00 | 1020.4 | |
| 20260504034538 | 0 | 36 | 0.0 | 0.0 | 0.00 | 0.00 | 0.00 | 1020.7 | |
| 20260504033538 | 0 | 53 | 0.0 | 0.0 | 0.00 | 0.00 | 0.00 | 1020.8 | |
| 20260504032538 | 0 | 47 | 0.0 | 0.0 | 0.00 | 0.00 | 0.00 | 1020.6 | |
| 20260504031537 | 0 | 43 | 0.0 | 0.0 | 0.00 | 0.00 | 0.00 | 1020.6 | |
| 20260504030536 | 0 | 44 | 0.0 | 0.0 | 0.00 | 0.00 | 0.00 | 1020.7 | |
| 20260504025535 | 0 | 45 | 0.0 | 0.0 | 0.00 | 0.00 | 0.00 | 1020.8 | |
| 20260504024535 | 0 | 42 | 0.0 | 0.0 | 0.00 | 0.00 | 0.00 | 1020.4 | |
| 20260504023534 | 0 | 71 | 0.0 | 0.0 | 0.00 | 0.00 | 0.00 | 1020.4 | |
| 20260504022532 | 0 | 48 | 0.0 | 0.0 | 0.00 | 0.00 | 0.00 | 1020.3 | |
| 20260504021532 | 0 | 48 | 0.0 | 0.0 | 0.00 | 0.00 | 0.00 | 1020.1 | |
| 20260504020531 | 0 | 43 | 0.0 | 0.0 | 0.00 | 0.00 | 0.00 | 1020.1 | |
| 20260504015530 | 0 | 37 | 0.0 | 0.0 | 0.00 | 0.00 | 0.00 | 1019.7 | |
| 20260504014528 | 0 | 39 | 0.0 | 0.0 | 0.00 | 0.00 | 0.00 | 1019.6 | |
| 20260504013523 | 0 | 51 | 0.0 | 0.0 | 0.00 | 0.00 | 0.00 | 1019.7 | |
| 20260504012523 | 0 | 51 | 0.0 | 0.0 | 0.00 | 0.00 | 0.00 | 1019.6 | |
| 20260504011523 | 0 | 63 | 0.0 | 0.0 | 0.00 | 0.00 | 0.00 | 1019.5 | |
| 20260504010521 | 0 | 121 | 0.0 | 0.0 | 0.00 | 0.00 | 0.00 | 1019.6 | |
| 20260504005520 | 0 | 216 | 0.0 | 0.0 | 0.00 | 0.00 | 0.00 | 1019.4 | |
| 20260504004515 | 0 | 221 | 0.0 | 0.0 | 0.00 | 0.00 | 0.00 | 1019.3 | |
| 20260504003514 | 0 | 56 | 0.0 | 0.0 | 0.00 | 0.00 | 0.00 | 1019.4 | |
| 20260504002514 | 0 | 111 | 0.0 | 0.0 | 0.00 | 0.00 | 0.00 | 1019.4 | |
| 20260504001515 | 0 | 61 | 0.0 | 0.0 | 0.00 | 0.00 | 0.00 | 1019.1 | |
| 20260504000514 | 0 | 128 | 0.0 | 0.0 | 0.00 | 0.00 | 0.00 | 1019.0 | |
| 20260503235515 | 0 | 108 | 0.0 | 0.0 | 0.00 | 0.00 | 0.00 | 1018.8 | |
| 20260503234515 | 0 | 116 | 0.0 | 0.9 | 0.00 | 0.00 | 0.00 | 1018.8 | |
| 20260503233509 | 0 | 126 | 0.0 | 0.9 | 0.00 | 0.00 | 0.00 | 1018.6 | |
| 20260503232508 | 0 | 58 | 0.9 | 1.7 | 0.00 | 0.00 | 0.00 | 1018.6 | |
| 20260503231503 | 0 | 65 | 0.0 | 0.9 | 0.00 | 0.00 | 0.00 | 1018.2 | |
| 20260503230502 | 0 | 94 | 0.0 | 0.0 | 0.00 | 0.00 | 0.00 | 1018.3 | |
| 20260503225503 | 0 | 98 | 2.6 | 2.6 | 0.00 | 0.00 | 0.00 | 1018.2 | |
| 20260503224501 | 0 | 87 | 6.1 | 7.8 | 0.00 | 0.00 | 0.00 | 1018.1 | |
| 20260503223457 | 0 | 96 | 1.7 | 4.3 | 0.00 | 0.00 | 0.00 | 1018.2 | |
| 20260503222456 | 0 | 129 | 4.3 | 6.1 | 0.00 | 0.00 | 0.00 | 1018.0 | |
| 20260503221452 | 0 | 131 | 6.1 | 8.7 | 0.00 | 0.00 | 0.00 | 1017.9 | |
| 20260503220451 | 0 | 72 | 6.1 | 8.7 | 0.00 | 0.00 | 0.00 | 1017.8 | |
| 20260503215451 | 0 | 94 | 7.8 | 8.7 | 0.00 | 0.00 | 0.00 | 1017.8 |